Tracking 31027 objects as of 19-Jul-2025
HD Live streaming from Space Station
objects crossing your sky now

OBJECT B

Track OBJECT B now!
10-day predictions


NORAD ID: 56847
Int'l Code: 2023-081B
Perigee: 356.5 km
Apogee: 361.0 km
Inclination: 97.3 °
Period: 91.6 minutes
Semi major axis: 6729 km
RCS: Unknown
Launch date: June 7, 2023
Source: (TBD)
Launch site: Jiuquan Satellite Launch Center, China (JSC)
Your satellite tracking list
Your tracking list is empty




NASA's NSSDC Master Catalog

Two Line Element Set (TLE):
1 56847U 23081B   25199.87764110  .00148090  00000-0  10929-2 0  9999
2 56847  97.3259 280.3492 0003298 210.4153 149.6920 15.72549773118194
Source of the keplerian elements: AFSPC